SL-16 DEB

Satellite information

Favourite Embed

Satellite Type and Status

DEBRISIN ORBIT

Key statistics

Satellite SL-16 DEB at a glance.

Uptime

11993

Days in orbit

Revolutions

≈ 13.7

Per day

Orbit

LEO

Low Earth Orbit

Inclination

71.1

Latest

Satellite identification and parameters

Extended collection of information and parameters for SL-16 DEB.

Object identification

Identified? True

Debris? True

Object name: SL-16 DEB

International designator: 1992-093H

Object number (NORAD): 22293

Object ID (CCSDS): 22293

Country: COMMONWEALTH OF INDEPENDENT STATES (CIS)

Current information (Y/N): Y

RCS size: SMALL

Orbital parameters

Period: 104.755 minutes

Inclination: 71.0557 deg

SMA: 7361.116 km

Apoapsis: 1128.924 km

Periapsis: 837.037 km

RAAN: 189.5016 deg

Eccentricy: 0.01982629

Argument of periapsis: 228.7227 deg

Mean anomaly: 129.6656 deg

Mean motion: 13.74634648 rev/day

Mean motion (dot): 0.00000114 rev/day2

B* drag term: 0.00014400513 1/REarth

Two-line elements (TLE)

Creation date: Oct. 26, 2025, 2:54 a.m.

Reference frame: TEME

Reference center: EARTH

Epoch: Oct. 25, 2025, 8:35 p.m. UTC

TLE line 0: 0 SL-16 DEB

TLE line 1: 1 22293U 92093H 25298.85827603 .00000114 00000-0 14401-3 0 9995

TLE line 2: 2 22293 71.0557 189.5016 0198263 228.7227 129.6656 13.74634648640409

Live tracking on map

Real-time ground track for satellite SL-16 DEB.

In-orbit conjunctions

A list of the most updated potential collisions computed for object SL-16 DEB.

Target Orbit TCA Probability of collision Miss distance Type
FENGYUN 1C DEB SSO 2025-03-10 19:39:32 0.0003787732 172.0 (m) DEBRIS
FENGYUN 1C DEB SSO 2024-11-14 00:43:51 0.0001154136 538.0 (m) DEBRIS

Associated space launch

Second generation ELING satellite

SL-16 DEB was lifted into orbit during the mission ‘Zenit-2 | Tselina-2 12’, on board a Zenit-2 space rocket.

The launch took place on Dec. 25, 1992, 5:56 a.m. from 45/1.

For more information about the launch, click the button.

Launch to space Zenit-2 | Tselina-2 12
Zenit-2 | Tselina-2 12

Agency: N/A

Status: Launch Successful

Launch date: Dec. 25, 1992, 5:56 a.m. UTC

Rocket: Zenit-2

Launch pad: 45/1

Location: Baikonur Cosmodrome, Republic of Kazakhstan

...

Latest news about this satellite

There are no fresh news available about this satellite. Check back as we update our databases every day.


Newsletter sign-up

Weekly statistics, charts and insights to help you stay on top of the space industry.